Simultaneous Nadir Overpasses (SNOs) Predictions

Prediction of SNOs between AURA and NPP Satellite Orbit:

Table of predicted SNOs for the next 14.0 days since TLE Epoch: 1/5/2014
Index Date (AURA) Time (AURA) Lat,Lon (AURA) SZA (AURA ) Date (NPP) Time (NPP) Lat,Lon (NPP) SZA (NPP ) Distance(km) Time Diff (sec)
1 01/06/2014 02:03:22 78.61, 40.74 115.95 01/06/2014 02:03:01 78.61, 40.74 115.97 0.15 21
2 01/06/2014 02:52:40 -78.98,-149.50 64.54 01/06/2014 02:53:36 -78.99,-149.48 64.59 0.56 56
3 01/08/2014 17:30:29 -78.44, -11.92 64.12 01/08/2014 17:29:19 -78.44, -11.81 64.08 2.54 70
4 01/08/2014 18:19:47 78.77, 157.48 115.47 01/08/2014 18:19:55 78.77, 157.52 115.45 0.74 8
5 01/11/2014 09:46:54 -78.56, 104.61 64.60 01/11/2014 09:46:14 -78.56, 104.68 64.59 1.68 40
6 01/11/2014 10:36:12 78.88, -85.96 114.98 01/11/2014 10:36:50 78.88, -85.97 114.95 0.25 38
7 01/14/2014 02:03:19 -78.60,-139.28 65.05 01/14/2014 02:03:10 -78.60,-139.31 65.03 0.78 9
8 01/14/2014 02:52:37 78.92, 30.15 114.54 01/14/2014 02:53:46 78.91, 30.03 114.51 2.64 69
9 01/16/2014 17:30:23 78.38, 167.83 114.81 01/16/2014 17:29:28 78.38, 167.84 114.85 0.31 55




NCC Satellite Simultaneous Nadir Overpasses (SNOs) Prediction Service
